Hutchinson, KS

8:11 AM CDT on July 28, 2017 (GMT -0500)
Hutchinson Municipal

Weather History for KHUT - July, 2013

Change the Weather History Date:

Wednesday, July 10, 2013

  Actual Average Record
Temperature  
Mean Temperature 84 °F -  
Max Temperature 100 °F 90 °F 111 °F (2011)
Min Temperature 68 °F 65 °F 59 °F (1996)
Cooling Degree Days 18    
Growing Degree Days 34 (Base 50)    
Moisture  
Dew Point 66 °F    
Average Humidity 56    
Maximum Humidity 87    
Minimum Humidity 30    
Precipitation  
Precipitation 0.00 in - - ()
Sea Level Pressure  
Sea Level Pressure 29.94 in    
Wind  
Wind Speed 5 mph (ENE)    
Max Wind Speed 13 mph    
Max Gust Speed 18 mph    
Visibility 10 miles    
Events      
Averages and records for this station are not official NWS values.
T = Trace of Precipitation, MM = Missing Value Source: NWS Daily Summary

Daily Weather History Graph

Daily Weather History Graph

Search for Another Location

Airport or City:

Trip Planner

Search our weather history database for the weather conditions in past years. The results will help you decide how hot, cold, wet, or windy it might be!

Date:

Astronomy

Jul. 10, 2013 Rise Set
Actual Time 6:17 AM CDT 8:55 PM CDT
Civil Twilight 5:46 AM CDT 9:26 PM CDT
Nautical Twilight 5:08 AM CDT 10:05 PM CDT
Astronomical Twilight 4:24 AM CDT 10:48 PM CDT
Moon 8:36 AM CDT (7/10) 10:09 PM CDT (7/10)
Length of Visible Light 15h 40m
Length of Day
14h 38m
Waxing Crescent, 5% of the Moon is Illuminated
Jul 10
Waxing Crescent
Jul 15
First Quarter
Jul 22
Full
Jul 29
Last Quarter
Aug 6
New

Hourly Weather History & Observations

Time (CDT) Temp. Heat Index Dew Point Humidity Pressure Visibility Wind Dir Wind Speed Gust Speed Precip Events Conditions
12:52 AM 77.0 °F - 69.1 °F 76% 29.92 in 10.0 mi Calm Calm - N/A   Clear
1:52 AM 73.0 °F - 66.0 °F 79% 29.93 in 10.0 mi Calm Calm - N/A   Clear
2:52 AM 72.0 °F - 66.9 °F 84% 29.93 in 10.0 mi Calm Calm - N/A   Clear
3:52 AM 72.0 °F - 64.9 °F 78% 29.93 in 10.0 mi East 3.5 mph - N/A   Clear
4:52 AM 70.0 °F - 64.9 °F 84% 29.94 in 10.0 mi ENE 3.5 mph - N/A   Clear
5:52 AM 70.0 °F - 64.9 °F 84% 29.95 in 10.0 mi Calm Calm - N/A   Clear
6:52 AM 68.0 °F - 64.0 °F 87% 29.95 in 10.0 mi Calm Calm - N/A   Clear
7:52 AM 75.0 °F - 66.0 °F 73% 29.95 in 10.0 mi Calm Calm - N/A   Clear
8:52 AM 81.0 °F 84.1 °F 69.1 °F 67% 29.96 in 10.0 mi ENE 5.8 mph - N/A   Clear
9:52 AM 82.0 °F 84.9 °F 68.0 °F 62% 29.98 in 10.0 mi NNE 8.1 mph - N/A   Clear
10:52 AM 88.0 °F 90.7 °F 66.9 °F 49% 29.98 in 10.0 mi North 8.1 mph - N/A   Clear
11:52 AM 91.0 °F 93.0 °F 64.9 °F 42% 29.98 in 10.0 mi ENE 9.2 mph - N/A   Clear
12:52 PM 95.0 °F 97.0 °F 64.0 °F 36% 29.97 in 10.0 mi ENE 11.5 mph 16.1 mph N/A   Clear
1:52 PM 97.0 °F 99.9 °F 64.9 °F 35% 29.96 in 10.0 mi NE 9.2 mph - N/A   Clear
2:52 PM 99.0 °F 101.7 °F 64.0 °F 32% 29.95 in 10.0 mi ENE 10.4 mph 16.1 mph N/A   Clear
3:52 PM 99.0 °F 100.5 °F 62.1 °F 30% 29.94 in 10.0 mi ESE 11.5 mph 16.1 mph N/A   Clear
4:52 PM 99.0 °F 100.5 °F 63.0 °F 30% 29.91 in 10.0 mi East 10.4 mph 17.3 mph N/A   Clear
5:52 PM 98.1 °F 100.7 °F 64.0 °F 33% 29.89 in 10.0 mi ESE 8.1 mph 18.4 mph N/A   Clear
6:52 PM 96.1 °F 99.3 °F 66.0 °F 37% 29.90 in 10.0 mi ENE 12.7 mph - N/A   Clear
7:52 PM 93.0 °F 99.0 °F 70.0 °F 47% 29.90 in 10.0 mi ENE 9.2 mph 17.3 mph N/A   Clear
8:52 PM 88.0 °F 92.9 °F 70.0 °F 55% 29.90 in 10.0 mi ENE 11.5 mph - N/A   Clear
9:52 PM 84.9 °F 87.6 °F 66.9 °F 55% 29.92 in 10.0 mi ENE 10.4 mph - N/A   Clear
10:52 PM 84.0 °F 85.8 °F 64.9 °F 53% 29.94 in 10.0 mi East 11.5 mph - N/A   Clear
11:52 PM 82.9 °F 83.3 °F 61.0 °F 47% 29.96 in 10.0 mi ESE 11.5 mph - N/A   Clear